Wind_Speed
39 39 38 37 36 35 35 34 34 34 34 33 33 32 31 31 30 30 30 29 29 28 28 27 27 27 26 26 26 26 25 25 25 26 26 26 26 26 25 25 26 26 26 26 25 25 25 25 26 25 25 25 25 25 25 24 22 21 20 19 18 19 19 19 20 19 19 19 19 19 20 22 23 23 22 18 15 13 12 14 18 21 21 20 19 18 17 17
41 41 40 39 38 38 37 36 36 36 35 35 34 33 32 32 31 30 30 30 30 30 29 29 28 28 27 27 26 26 26 25 26 26 26 26 26 27 26 26 26 27 27 27 26 26 26 26 26 26 26 25 25 25 25 25 23 22 21 20 20 20 20 20 21 20 20 20 20 20 21 22 24 24 23 21 19 17 12 10 13 18 22 24 23 22 20 19
42 42 42 41 40 39 39 38 38 37 37 36 35 34 33 32 32 31 31 30 30 30 30 30 29 29 29 28 28 27 26 26 26 26 26 26 26 27 27 27 27 27 27 27 27 27 27 27 27 26 26 26 25 26 26 25 24 23 23 22 22 21 21 22 21 21 21 21 21 22 22 23 24 25 24 22 20 20 15 10 10 14 19 23 25 26 25 24
43 43 43 43 42 41 41 40 40 39 38 37 36 35 34 33 32 31 31 31 31 31 31 31 30 30 30 30 29 28 28 27 27 27 27 26 26 27 27 27 28 28 28 28 28 28 27 27 27 27 26 26 26 26 26 26 25 25 24 24 24 22 22 23 22 22 23 22 22 23 23 23 24 25 24 24 22 21 19 15 13 13 15 19 22 25 27 28
45 44 44 44 43 43 42 42 41 40 39 38 37 36 35 34 33 32 32 31 32 32 32 32 31 31 31 31 31 30 29 28 29 29 28 27 27 27 27 27 28 28 29 29 29 29 28 28 27 27 26 26 26 27 27 27 26 26 25 25 25 23 23 24 24 24 24 24 23 24 23 23 25 24 24 25 24 22 21 20 19 16 16 18 20 22 24 27
46 45 45 45 44 44 43 43 42 41 41 39 38 37 36 35 33 33 32 32 33 33 33 33 32 32 32 32 32 31 30 30 31 31 29 28 28 28 27 27 28 28 29 29 30 30 29 29 28 28 27 27 27 27 28 28 28 28 27 27 27 25 24 25 25 25 26 26 25 25 24 24 26 24 24 26 25 24 23 23 23 22 22 21 22 22 23 24
47 47 46 45 45 45 44 44 44 43 43 41 40 38 37 36 34 34 33 33 34 34 34 33 33 33 33 33 33 33 31 31 33 33 31 30 30 29 29 29 29 29 29 30 30 30 30 30 30 29 29 28 28 28 29 29 29 29 28 27 27 27 25 25 25 26 27 27 27 27 25 26 28 26 25 26 26 25 25 25 25 25 26 26 26 25 25 24
48 48 47 47 46 46 45 45 45 45 44 43 42 40 38 37 36 35 35 35 35 35 35 34 33 33 33 34 34 34 33 31 34 34 32 32 31 31 31 30 30 30 31 31 31 31 31 31 31 31 30 30 29 29 29 29 30 30 29 28 28 28 27 26 25 26 28 28 28 29 28 28 30 29 27 27 27 26 26 26 27 28 28 29 29 29 28 27
49 49 49 48 48 47 46 46 46 45 45 44 43 42 40 39 38 37 36 36 36 36 36 35 34 33 34 34 34 35 33 32 34 34 33 33 33 33 32 32 32 32 32 32 33 33 33 32 32 32 32 32 31 30 30 30 31 31 30 30 29 29 29 27 27 27 28 28 28 30 30 30 32 32 29 29 29 28 27 27 28 30 30 30 30 31 30 29
49 50 50 50 49 49 48 47 46 46 46 45 45 44 42 41 40 39 38 38 38 38 37 36 35 34 34 35 36 36 33 33 34 34 34 34 34 34 34 34 34 34 34 34 34 34 34 34 34 33 33 34 33 32 31 31 31 32 32 32 30 30 30 29 29 29 29 29 29 31 33 33 35 34 32 31 31 30 29 30 30 31 31 31 31 32 32 31
49 50 51 51 51 50 50 49 48 47 47 47 46 46 45 44 43 42 41 40 40 39 39 38 37 36 35 35 37 37 34 34 35 34 35 35 35 35 35 36 36 36 36 36 36 36 35 35 35 35 35 35 35 34 33 33 33 33 33 33 32 32 32 31 31 32 31 30 31 33 35 37 37 37 34 33 33 32 31 31 32 32 32 32 32 32 32 33
50 50 51 52 52 51 51 50 50 49 48 48 48 47 47 46 45 45 44 42 42 41 40 39 38 37 36 37 39 38 36 36 36 35 35 36 36 36 37 37 37 37 38 38 38 37 37 37 37 36 36 37 37 36 35 35 35 35 34 35 34 34 35 34 33 34 33 32 32 34 38 41 41 39 37 35 34 34 34 34 34 34 34 34 33 34 34 34
51 51 51 51 52 53 52 52 51 51 50 49 49 49 48 48 47 47 46 45 44 43 42 41 40 39 38 39 41 39 38 38 37 36 36 36 37 37 38 38 38 38 39 39 39 39 39 39 38 38 38 38 38 38 37 37 37 36 35 36 37 36 38 38 36 36 35 34 34 36 39 44 46 43 40 38 36 35 36 37 36 36 35 35 36 36 36 36
52 51 51 52 52 53 53 53 53 52 51 51 50 50 50 50 49 49 48 47 47 45 44 42 41 40 39 41 43 41 40 39 38 37 37 37 37 38 38 38 39 39 39 40 40 40 40 40 39 39 40 40 40 40 39 39 38 38 37 37 38 39 41 42 39 38 38 36 37 38 40 46 50 46 42 40 38 38 39 39 38 38 38 38 38 38 38 38
52 52 52 52 53 53 54 54 54 53 53 52 52 51 51 51 51 51 50 49 49 48 46 44 43 42 41 43 44 42 41 40 39 39 38 38 38 38 38 38 39 39 39 40 40 40 40 40 40 40 41 42 42 42 41 40 40 40 39 39 41 42 44 45 43 41 40 38 39 39 41 46 52 49 44 41 40 41 41 40 40 40 40 40 41 41 41 41
53 53 52 52 53 53 54 54 54 54 54 53 53 53 52 52 52 52 52 52 51 50 48 46 45 44 43 44 45 44 43 41 39 40 40 39 38 38 38 38 39 39 39 40 40 41 41 40 41 41 42 43 44 43 41 40 42 42 40 41 42 43 44 47 46 44 41 40 39 40 42 46 51 51 45 42 42 43 42 41 42 42 42 43 43 43 44 44
54 54 53 53 53 54 54 55 55 55 55 55 55 54 54 54 54 53 53 53 52 52 50 49 48 46 44 46 46 46 45 42 41 41 40 39 39 39 39 39 39 39 39 40 40 40 40 40 40 41 43 44 45 42 39 40 43 43 42 42 43 43 45 47 49 45 42 40 40 41 43 45 50 50 45 43 44 44 43 43 44 44 45 46 46 46 47 47
56 55 54 54 54 54 54 55 56 56 56 57 56 56 55 55 55 54 54 54 53 53 52 51 50 48 47 48 48 48 46 44 43 42 40 40 40 40 40 40 39 39 40 40 40 40 39 39 40 41 43 45 43 39 37 39 42 42 41 41 41 43 44 47 48 45 42 41 41 42 42 44 48 48 45 45 45 45 45 45 46 46 47 48 48 49 49 49
57 57 57 56 55 55 55 56 57 57 57 58 57 57 57 56 55 55 55 55 54 55 54 53 52 50 50 51 50 49 48 46 44 43 42 42 42 41 41 41 41 41 41 41 41 40 39 39 39 41 45 44 40 38 37 39 40 40 40 40 40 41 43 46 46 43 41 40 41 42 41 43 46 46 46 46 46 46 46 46 47 47 47 48 48 48 49 48
57 58 59 58 57 57 57 57 57 58 58 58 58 58 58 58 57 56 56 55 55 55 54 53 53 52 52 53 52 50 49 47 45 45 45 44 44 43 43 43 43 43 43 43 42 41 41 39 40 45 46 43 40 39 39 39 40 40 40 40 40 40 42 45 44 41 40 39 41 42 41 43 45 45 46 48 48 48 47 47 47 47 47 47 48 47 47 47
57 58 59 59 59 58 58 58 59 59 59 59 59 59 59 59 58 57 57 57 56 56 55 54 53 54 54 54 53 51 50 49 48 48 47 47 46 45 45 45 45 45 46 45 43 44 43 40 43 48 46 42 41 42 41 41 41 41 41 41 41 42 43 44 43 41 40 39 40 42 42 44 44 45 47 48 49 49 48 48 48 48 48 48 48 48 48 48
57 57 58 60 59 59 59 59 59 60 60 60 59 59 59 59 58 58 58 57 57 57 55 55 54 55 56 55 54 53 51 50 51 51 50 50 49 49 48 47 47 48 48 47 47 46 43 42 47 49 46 44 44 43 43 42 42 43 43 42 42 44 44 43 43 42 42 40 41 42 43 44 45 46 48 49 50 50 49 49 49 49 50 50 51 51 52 52
57 57 58 59 60 59 59 58 59 60 60 60 60 60 59 59 59 59 58 57 57 58 56 56 55 55 56 56 55 55 53 53 54 54 54 53 53 52 50 49 50 50 50 50 50 47 44 45 49 50 48 46 45 45 45 45 44 44 45 44 44 46 45 44 44 45 43 43 43 43 44 45 46 47 49 51 51 51 50 50 50 51 51 52 53 54 54 55
58 58 58 59 60 60 60 60 59 59 59 59 61 61 61 60 60 60 59 57 56 58 58 57 56 56 57 57 56 56 56 57 56 56 58 57 56 55 53 53 54 53 53 54 53 48 46 48 51 51 50 48 47 47 48 47 47 46 47 47 47 47 47 46 47 47 46 45 45 46 45 46 48 49 51 52 52 52 52 53 53 53 54 55 56 56 56 57
60 59 59 59 59 60 60 60 61 60 59 60 60 61 62 62 61 61 61 58 54 57 61 58 56 56 57 58 57 58 58 58 58 60 61 60 59 59 58 58 57 56 57 57 54 50 49 53 53 52 51 49 49 50 51 50 48 48 49 50 49 49 49 49 49 48 48 48 48 49 49 48 50 52 54 55 54 54 55 55 56 57 57 58 59 59 60 60
63 61 60 59 59 59 59 60 61 61 60 61 61 61 62 63 63 63 63 60 53 54 61 60 56 55 56 59 59 60 59 58 61 63 63 63 62 61 60 59 59 59 60 59 55 52 53 56 54 52 52 51 51 52 53 51 49 50 52 52 51 50 51 51 51 51 50 50 51 52 53 52 52 55 58 58 58 58 58 59 59 60 60 61 62 62 63 64
66 64 61 59 58 58 59 59 60 59 60 62 62 62 63 63 65 65 66 63 53 52 57 58 57 56 56 60 61 62 60 59 63 65 64 64 63 62 61 60 60 61 60 59 56 55 57 58 56 54 54 54 54 54 53 51 51 52 54 54 53 53 54 54 54 54 54 54 54 56 58 57 55 58 61 61 61 62 62 62 63 63 64 64 65 66 66 66
67 66 64 62 60 59 59 59 60 60 61 62 62 64 65 65 67 67 69 66 53 49 53 55 58 58 58 61 62 64 63 62 64 65 64 64 62 62 61 60 61 61 60 60 59 59 59 59 58 57 57 56 57 56 54 53 53 54 55 55 55 56 56 57 57 57 57 57 57 59 62 61 58 59 62 62 62 64 64 65 66 67 67 68 68 69 69 69
67 67 67 66 64 62 61 61 61 62 62 62 63 64 65 67 69 70 73 67 52 48 52 55 59 60 60 61 62 65 65 65 65 64 64 64 62 62 62 61 61 61 62 62 61 61 61 60 60 59 59 59 58 57 55 54 54 56 57 57 58 58 58 58 59 59 59 59 58 61 64 63 60 60 62 63 64 65 66 67 68 69 70 70 71 72 72 72
66 66 67 67 66 65 64 63 63 64 63 63 63 64 65 68 69 73 74 64 54 52 53 56 59 60 62 63 64 66 67 66 65 63 63 63 63 63 63 62 62 62 63 62 63 63 62 62 61 60 60 60 59 58 58 57 58 58 59 59 59 59 59 60 60 61 61 60 60 63 65 65 63 62 64 65 65 66 67 69 70 71 72 73 73 74 74 75
66 66 67 66 65 66 65 63 65 66 66 66 65 65 66 68 72 75 69 60 59 58 55 57 59 61 64 65 66 67 66 66 65 63 63 63 63 63 63 64 64 64 64 63 65 65 63 62 61 61 61 61 61 61 61 61 61 61 61 61 62 62 62 62 62 63 63 61 62 64 66 66 64 63 65 65 66 68 69 70 72 73 75 76 76 77 77 78
66 68 68 67 66 66 65 65 68 69 67 67 68 67 68 71 73 71 62 60 63 61 57 59 62 64 66 66 66 66 65 65 64 63 63 62 62 63 63 64 64 65 64 65 67 65 63 63 63 63 63 63 64 63 64 64 63 63 63 64 64 64 64 64 64 65 64 63 64 64 65 64 63 64 66 67 68 69 70 72 74 75 77 78 79 79 80 81
67 68 68 67 66 66 66 67 70 70 68 68 70 70 71 73 69 62 60 63 63 61 60 62 64 66 67 65 65 65 64 64 63 62 62 61 62 62 63 64 65 66 65 66 67 66 65 65 64 65 65 65 66 66 66 65 65 65 65 66 66 66 67 66 66 66 65 65 65 65 66 64 62 63 65 67 69 70 71 73 75 77 79 79 80 81 82 83
70 70 68 68 67 65 65 66 68 70 70 70 72 73 74 72 63 58 62 64 63 62 62 63 65 66 66 65 64 64 64 63 63 63 63 62 62 63 64 65 65 66 66 67 68 67 67 66 67 67 67 67 67 67 67 66 66 66 66 68 68 69 71 69 69 69 69 69 69 68 69 67 66 66 66 67 69 71 73 75 77 78 80 81 82 83 84 86
74 72 71 71 68 65 65 66 68 71 72 72 74 77 75 69 62 60 63 64 64 64 63 64 66 66 66 65 64 64 64 64 64 64 64 63 64 65 65 66 66 67 68 69 70 70 69 68 68 69 68 68 68 68 68 67 67 67 68 70 70 73 75 74 73 73 74 74 71 70 70 69 69 70 70 71 72 73 75 77 79 81 83 84 86 86 88 89
78 77 76 74 69 66 67 69 70 72 74 75 78 79 75 68 65 65 64 64 64 64 65 66 66 66 67 66 66 66 65 65 65 65 64 64 65 65 66 67 68 68 69 71 72 71 70 69 69 70 69 69 68 68 68 68 68 68 69 71 73 76 77 77 76 76 77 76 73 71 71 70 71 73 74 77 79 80 81 82 83 84 87 89 90 91 92 92
81 80 78 75 72 71 71 70 72 74 75 78 81 79 75 71 69 67 63 62 63 63 66 68 68 68 69 69 68 68 68 68 67 66 66 65 65 65 66 68 69 70 71 73 73 71 70 70 70 71 70 70 70 70 69 70 70 71 71 73 75 77 77 78 79 79 79 78 75 72 70 70 72 75 78 82 85 87 88 89 90 90 91 92 93 94 94 94
82 82 80 76 75 75 74 73 74 75 77 81 82 77 73 72 70 67 64 63 63 64 65 67 69 70 70 70 70 72 73 72 71 71 71 69 68 67 68 70 70 71 73 73 73 72 71 71 72 73 74 74 74 73 72 73 74 75 76 76 78 79 80 82 84 84 83 83 79 75 73 72 74 78 82 86 88 91 93 95 96 96 96 96 94 94 94 94
85 85 81 77 76 77 77 77 77 80 83 85 83 76 71 69 69 69 68 68 68 67 65 65 68 69 69 70 71 73 76 75 75 76 75 74 72 70 71 72 72 73 75 75 73 72 71 71 71 73 75 75 75 74 75 76 78 79 79 79 80 82 84 85 86 87 87 88 87 83 79 77 79 83 88 90 91 93 96 98 99 100 101 99 97 95 95 94
87 87 82 78 78 79 80 82 83 86 88 86 81 75 71 69 68 69 70 71 72 70 68 67 68 69 69 69 70 72 75 76 77 78 77 77 76 74 74 75 75 75 76 75 74 74 74 74 74 74 74 74 74 75 76 77 78 79 79 79 80 83 86 87 88 88 89 91 91 89 86 82 84 89 92 93 95 96 99 100 102 104 104 103 100 98 97 96
89 89 84 80 81 82 84 86 87 89 89 85 81 78 75 73 71 71 72 74 75 74 71 70 70 71 71 72 72 72 73 75 77 78 78 77 77 77 77 78 78 78 79 80 80 80 81 80 78 77 76 75 75 75 76 78 79 80 81 82 83 86 89 91 92 91 91 93 94 94 92 86 87 92 95 96 98 99 101 103 105 108 108 106 102 99 98 98
89 90 87 84 85 86 87 90 90 91 90 88 85 83 81 77 75 74 74 75 77 77 76 74 73 73 74 75 75 76 76 76 75 76 76 76 77 77 79 81 82 84 85 85 85 85 86 84 82 80 79 79 78 78 79 81 82 84 85 86 88 90 92 94 94 93 94 96 96 98 97 91 88 92 96 98 99 101 103 106 109 110 108 105 102 100 100 102
90 90 89 88 88 89 90 93 93 92 91 89 88 88 85 82 80 80 79 79 80 81 80 79 78 77 77 77 78 79 79 79 79 77 76 76 77 78 80 82 85 87 88 88 88 89 89 88 85 84 83 82 83 83 84 85 87 89 90 90 91 93 95 98 99 99 100 99 99 102 101 94 91 93 97 100 102 103 104 106 107 107 105 103 102 103 105 108
90 91 91 91 91 91 93 93 93 92 91 90 90 90 88 86 86 85 84 82 83 84 84 83 82 81 81 81 82 82 82 83 83 83 82 81 81 81 83 85 87 88 89 90 91 92 92 91 89 88 86 86 86 88 89 91 94 96 96 95 96 98 100 102 104 105 103 98 97 100 98 93 92 94 97 99 101 101 101 102 102 103 103 104 106 108 110 113
91 92 92 93 94 94 94 94 93 92 92 92 92 91 90 89 89 88 87 86 86 87 87 87 85 84 84 84 85 85 86 86 87 88 88 88 88 88 89 90 91 92 93 94 95 96 96 96 95 93 91 90 90 91 93 95 98 99 99 100 102 103 103 102 103 104 100 96 97 96 92 93 94 94 96 98 99 100 101 102 104 106 108 109 110 112 115 118
94 94 94 95 96 96 95 95 94 94 93 94 93 93 92 92 92 91 90 90 90 90 91 90 89 88 87 87 87 87 87 88 89 90 90 91 92 93 94 96 96 96 97 97 99 100 100 99 98 97 96 95 95 95 96 96 98 99 99 101 102 102 101 99 99 99 99 100 100 96 96 100 99 98 101 103 103 105 107 109 111 111 113 114 116 118 120 122
96 96 96 97 98 98 97 97 97 96 95 95 96 95 94 94 95 95 94 93 93 93 94 94 94 93 92 91 91 90 90 90 90 89 89 90 92 93 96 98 100 100 99 99 100 100 101 100 100 99 98 96 96 97 98 97 97 97 98 99 98 98 98 97 96 97 99 103 102 99 103 106 103 102 106 109 110 112 114 115 115 116 118 121 123 124 123 123
97 97 97 98 100 100 99 98 98 98 97 97 98 98 97 97 97 96 96 96 96 96 97 97 97 96 96 96 96 96 95 94 93 91 91 92 93 94 96 98 100 100 100 99 100 100 102 101 100 101 99 97 98 99 99 100 99 99 98 97 96 96 97 96 97 99 103 106 106 105 108 108 105 107 112 116 118 119 118 119 120 122 124 126 127 127 126 126
99 99 99 99 100 101 101 100 100 100 99 99 100 99 99 98 98 97 98 99 99 100 100 100 99 99 100 101 101 101 99 96 95 94 95 97 98 98 99 99 100 101 101 102 102 103 104 104 103 104 103 101 101 102 103 103 103 102 101 99 96 96 97 98 100 103 107 109 109 110 112 111 109 113 119 122 123 123 123 124 126 127 129 129 130 131 131 131
101 101 101 101 101 102 103 103 103 102 101 101 101 100 100 99 99 99 101 101 102 103 104 103 103 103 104 106 106 103 100 99 98 99 100 101 101 101 101 102 102 103 104 105 106 107 108 108 107 109 110 107 105 105 107 108 107 106 104 99 97 99 101 102 104 106 109 111 112 116 118 115 115 120 125 126 127 128 130 130 131 132 132 133 134 135 136 136
104 103 103 102 103 104 104 104 103 103 103 103 102 102 101 101 102 103 104 105 105 105 105 105 105 107 108 109 108 105 104 104 105 104 104 103 103 103 103 104 105 106 107 108 109 110 111 111 112 113 115 114 110 111 113 113 113 111 104 99 101 105 105 105 106 108 112 115 119 122 122 121 122 127 129 130 131 133 134 134 135 136 137 138 138 139 139 139
107 107 106 105 106 106 106 105 105 105 104 104 104 105 105 105 105 106 107 106 106 106 107 107 108 109 110 109 108 108 109 110 110 109 109 108 107 106 107 107 107 109 109 110 111 112 112 114 114 116 118 117 115 115 116 118 119 114 105 104 109 111 110 110 112 115 118 122 125 127 127 127 129 131 132 133 135 136 136 138 139 139 140 141 141 142 142 141
Wind_Direction
239 240 241 242 243 244 246 248 250 251 253 255 256 258 259 260 262 264 265 267 268 269 270 271 272 273 274 274 275 276 276 276 276 276 276 276 276 276 275 275 275 275 274 274 274 275 276 276 277 278 278 279 279 280 280 279 279 279 278 277 275 274 273 273 272 273 274 275 277 280 284 287 291 294 295 299 297 294 305 311 311 309 305 303 299 294 291 289
239 240 240 241 242 243 244 246 248 249 251 253 255 257 259 261 263 265 266 267 268 269 270 271 272 273 274 274 274 275 275 276 276 276 276 277 277 278 277 277 277 276 276 276 277 277 277 278 278 279 279 280 280 280 280 280 279 279 278 277 274 274 274 274 274 275 275 276 279 281 283 286 288 291 294 298 298 297 300 302 301 299 299 301 300 299 294 289
240 240 240 240 241 242 243 244 246 248 250 252 254 256 258 261 262 264 266 267 268 269 269 270 271 272 272 273 274 274 275 275 275 275 276 277 278 278 279 279 278 278 278 279 279 279 279 279 279 280 280 280 281 281 281 281 281 280 279 277 275 275 276 275 276 276 276 276 279 281 284 286 287 289 293 296 297 298 301 298 288 286 292 298 301 302 301 297
241 241 240 240 240 241 242 243 245 247 249 250 252 255 257 259 261 263 265 267 268 268 269 269 270 270 271 272 273 274 274 274 274 274 274 276 277 278 278 279 279 280 279 279 279 279 279 279 279 280 281 281 281 281 281 281 280 280 279 278 278 278 278 277 277 277 277 277 278 280 282 283 284 287 291 293 295 298 303 303 293 283 284 288 292 296 299 301
242 242 242 242 241 241 242 243 244 246 248 250 251 253 256 258 259 262 264 265 267 268 268 268 268 269 270 270 272 272 272 273 273 273 273 274 275 276 277 277 278 278 279 279 279 279 278 278 279 279 280 279 279 279 279 279 279 279 279 279 279 280 279 279 279 279 278 279 280 280 281 281 281 285 289 291 295 299 303 304 300 293 283 279 281 284 289 293
243 243 244 243 243 243 243 244 244 246 247 249 250 252 254 256 258 260 262 263 265 266 267 267 268 268 269 269 270 270 270 271 272 272 273 274 274 275 275 275 276 276 277 278 278 279 279 278 278 279 278 278 278 278 279 279 280 280 280 280 280 280 278 278 280 280 279 280 281 281 281 281 280 283 286 289 295 300 302 302 301 299 294 288 285 284 283 285
243 244 244 244 244 244 244 244 244 245 246 248 250 252 253 255 257 258 260 261 263 264 266 266 267 268 269 269 269 269 269 270 270 272 273 274 275 275 275 274 274 275 275 276 277 277 278 278 278 278 278 278 277 277 278 279 281 282 282 281 281 281 278 278 279 280 281 282 283 283 283 282 281 283 285 287 293 297 300 301 300 299 297 295 292 290 288 287
243 244 244 245 245 245 244 244 244 245 246 248 250 251 253 254 255 257 258 260 262 264 265 266 267 268 269 269 269 269 268 268 269 271 272 272 273 273 273 273 273 273 274 274 275 275 276 276 277 278 278 277 277 277 277 279 280 282 283 283 283 282 281 281 280 280 281 283 284 285 285 284 282 285 288 288 291 295 297 297 297 296 295 295 294 294 293 293
244 244 245 245 245 245 245 245 245 246 246 247 249 251 252 253 254 255 257 259 261 263 265 266 266 267 268 269 269 268 268 268 268 269 270 269 269 270 270 271 271 272 272 272 273 274 275 276 276 277 277 277 277 277 278 278 280 282 284 284 283 283 283 283 282 279 279 281 283 283 284 283 281 285 289 289 291 294 293 292 292 292 293 294 294 296 296 297
245 245 245 246 246 246 246 246 246 246 247 247 248 249 251 251 253 254 255 257 260 262 264 265 265 266 267 268 268 268 268 268 267 267 268 267 267 267 267 268 269 270 270 271 271 273 273 274 275 275 276 277 278 278 279 279 280 282 283 284 284 283 283 282 281 279 278 279 281 281 281 280 280 283 286 287 289 291 290 288 288 289 290 291 293 295 296 297
245 246 246 247 247 247 247 247 246 246 246 247 247 248 249 250 251 252 253 255 257 260 262 264 264 264 265 267 267 267 267 266 266 266 266 266 266 265 265 265 266 268 268 269 270 271 272 273 274 275 276 277 278 279 279 279 280 281 282 283 284 284 283 281 280 278 278 279 281 281 281 280 279 281 282 283 285 288 288 287 286 286 287 288 290 293 294 295
245 246 246 247 248 248 248 248 247 247 247 247 247 247 248 248 250 251 252 253 255 258 260 262 263 263 264 265 265 266 266 265 266 266 266 265 265 265 265 265 266 266 267 268 269 270 271 272 273 275 275 276 277 278 278 278 279 280 281 282 283 283 282 280 278 278 278 279 281 281 282 281 280 280 281 282 284 286 287 286 285 285 286 287 289 291 291 292
244 245 246 247 248 248 248 249 249 248 248 248 247 247 247 248 249 250 251 252 254 255 258 260 261 262 262 263 264 264 265 265 265 265 265 265 265 265 266 266 267 267 268 269 269 270 271 272 273 273 274 274 275 276 276 276 277 278 279 281 281 281 280 277 277 278 278 279 279 280 282 282 281 280 282 283 284 284 284 284 285 286 287 288 288 289 289 290
244 245 246 247 247 248 248 249 249 249 249 249 249 248 248 248 248 249 250 251 252 254 256 258 259 260 261 262 263 264 264 265 265 265 266 266 266 267 267 267 268 269 270 270 271 271 271 272 273 273 273 273 273 273 274 275 276 277 277 278 279 278 278 277 277 277 277 278 278 279 281 281 281 281 283 284 285 283 282 283 285 286 287 287 287 287 288 289
243 244 245 246 247 248 248 248 249 249 250 250 250 249 249 249 248 249 250 251 252 253 254 256 258 259 260 262 263 264 264 264 266 266 266 266 267 268 268 268 269 269 270 271 271 272 272 273 274 274 273 273 273 272 273 275 276 276 276 276 276 276 277 278 278 276 277 277 278 278 278 279 280 281 283 284 284 282 282 283 284 284 284 285 286 286 286 286
242 243 244 246 247 248 248 248 248 249 249 250 250 250 250 249 249 249 250 250 251 252 253 255 256 257 259 262 263 263 264 264 265 264 264 265 266 266 266 267 267 268 269 270 271 272 272 273 274 273 273 273 272 272 274 275 274 274 274 274 274 276 276 277 277 277 278 279 278 277 276 277 278 281 283 283 282 280 281 283 283 282 282 283 283 283 283 284
242 243 244 245 247 248 248 248 248 248 249 250 250 250 250 250 250 250 250 250 251 252 253 254 255 256 258 260 261 262 263 264 263 263 264 264 264 264 264 264 265 266 266 267 268 269 271 272 272 272 272 271 271 274 277 276 273 273 274 273 274 275 275 276 276 278 279 279 278 277 276 276 277 279 281 281 280 280 281 281 281 282 282 282 282 282 282 283
243 243 244 245 246 248 248 248 248 248 248 249 250 250 251 251 251 251 251 251 252 252 252 253 254 255 255 257 259 261 262 262 263 263 263 263 263 263 263 263 264 264 264 265 265 267 269 269 271 271 270 270 273 278 278 274 273 274 275 274 274 273 273 274 275 279 280 280 278 277 276 277 277 279 280 279 279 280 281 282 282 283 283 283 284 284 284 285
244 244 243 244 245 246 247 248 248 248 248 248 249 250 251 252 252 253 253 253 253 253 253 253 254 254 254 256 258 260 261 261 262 264 263 262 262 262 263 263 263 263 263 263 264 266 267 268 270 269 268 271 277 279 275 273 273 274 275 275 274 273 274 273 275 279 281 281 280 278 278 277 278 280 281 280 280 280 281 282 283 283 284 284 284 285 286 286
245 245 245 244 244 245 246 246 247 247 248 248 248 249 250 251 252 253 254 254 254 254 254 254 255 255 255 255 257 259 261 262 262 263 263 262 262 262 262 262 262 262 262 263 265 266 266 268 268 266 269 275 277 275 273 273 274 274 274 274 274 274 274 274 277 280 281 281 281 281 281 279 280 282 282 282 282 282 282 282 283 283 283 283 283 284 284 284
246 246 246 246 246 246 246 247 246 247 247 247 248 248 249 250 251 252 253 254 254 255 255 255 255 256 255 255 257 258 260 261 262 263 262 262 262 262 262 262 262 263 263 264 266 265 267 269 267 267 272 275 273 272 273 273 272 272 273 273 274 273 273 275 279 279 279 280 281 282 283 282 283 283 283 282 282 282 282 282 283 282 282 282 281 281 280 280
246 246 247 247 247 247 248 248 248 248 247 247 248 248 249 250 251 251 252 253 255 255 256 256 256 256 256 256 256 257 258 260 261 261 261 261 261 261 261 262 263 263 264 265 265 266 270 271 268 270 272 272 271 272 272 271 271 271 272 273 273 272 273 276 278 277 278 279 279 281 282 283 285 285 284 284 284 284 284 283 283 282 281 280 279 278 278 278
245 245 246 247 247 248 249 250 250 250 250 249 249 249 249 250 251 251 252 252 254 256 256 256 256 256 257 257 256 256 257 258 259 260 260 260 260 260 261 261 262 263 264 265 266 268 271 270 268 270 271 271 272 272 270 269 269 270 273 274 272 273 275 276 276 278 279 279 279 280 281 283 284 284 284 284 285 286 285 284 283 282 280 279 278 277 277 277
246 245 245 246 247 247 248 249 250 251 252 251 251 250 250 250 250 251 251 251 252 255 256 255 256 256 257 258 257 257 256 256 257 258 259 259 259 259 259 259 261 263 264 265 268 270 270 268 267 269 271 272 272 271 269 269 270 272 273 272 272 274 276 276 276 278 280 280 280 280 280 281 282 282 282 282 284 284 284 283 282 281 279 277 277 276 275 275
246 246 245 245 246 247 248 249 250 251 251 252 252 252 252 251 251 251 251 250 249 254 256 255 255 256 258 258 258 257 255 256 257 257 257 258 258 259 259 259 261 263 264 266 268 270 269 266 266 268 270 271 270 270 269 270 273 273 272 271 272 275 276 276 276 277 278 279 279 279 279 279 280 281 281 281 283 283 283 281 280 279 277 276 275 275 274 273
244 245 246 246 247 248 250 250 251 251 252 252 252 253 253 253 253 252 252 250 247 250 256 257 256 255 257 258 258 258 257 256 256 256 257 258 258 259 260 261 262 263 264 266 268 268 266 266 267 268 269 270 269 269 270 272 273 271 270 272 274 275 275 275 276 277 277 277 278 279 278 278 278 280 280 282 283 282 281 280 279 277 276 275 274 274 273 273
242 244 245 247 248 249 251 252 253 253 253 253 253 253 253 253 253 253 253 251 246 248 254 257 258 256 255 257 258 258 257 256 256 257 257 258 259 261 261 262 263 263 265 267 268 266 265 266 268 268 268 269 269 269 271 272 271 269 270 273 274 274 275 276 277 277 277 278 278 279 279 278 279 280 281 282 282 281 280 279 277 276 275 274 273 273 272 272
242 244 245 246 247 248 250 252 253 254 254 254 254 254 253 253 253 253 253 251 247 248 253 256 258 257 255 256 257 257 257 255 255 257 258 259 260 262 262 262 262 264 265 266 266 265 265 266 267 268 269 269 269 270 271 270 269 269 271 273 274 275 277 277 278 279 278 279 280 279 278 279 280 281 282 282 282 281 280 279 277 276 276 275 274 273 273 273
246 246 247 246 246 247 249 250 252 254 254 254 254 254 254 254 253 253 253 252 248 248 250 252 255 257 257 256 256 256 256 255 255 256 258 260 261 262 262 262 263 264 264 265 265 265 265 266 267 269 270 270 270 270 270 269 269 270 271 273 275 276 277 278 278 279 279 280 280 279 279 281 282 283 283 283 283 282 281 280 279 279 278 277 275 274 273 273
249 249 249 248 248 249 249 250 252 254 255 255 256 257 256 256 255 254 253 253 251 247 246 249 252 255 256 257 256 256 256 257 257 258 259 260 261 262 263 263 263 263 263 264 264 264 264 266 268 269 269 270 270 269 269 269 269 270 272 274 275 276 277 277 278 279 279 280 280 280 281 283 284 284 284 283 283 282 282 281 280 279 278 277 276 275 274 273
248 248 248 248 248 248 248 250 252 254 255 256 257 259 259 257 255 254 254 255 254 248 245 247 250 252 254 255 257 258 259 260 260 260 260 260 261 262 262 263 263 263 263 263 262 263 265 266 268 268 268 268 269 269 270 271 271 272 273 274 275 276 276 277 278 278 279 280 280 281 283 285 286 286 284 283 282 281 281 281 280 279 278 277 276 275 275 274
249 248 248 247 247 247 247 247 249 251 253 256 257 259 259 257 255 256 258 257 254 251 248 247 247 250 252 254 257 259 260 261 262 262 262 261 261 261 261 262 262 262 261 261 262 264 265 265 266 266 267 268 269 270 271 272 272 273 274 275 275 275 276 276 276 277 278 280 281 283 284 286 287 285 283 282 281 281 281 280 279 279 279 278 277 276 275 275
250 249 248 248 247 247 246 246 248 250 252 254 256 257 257 257 257 258 259 257 256 253 250 248 248 248 251 254 257 259 260 261 262 262 262 261 261 261 261 261 261 261 260 261 262 263 263 264 265 266 267 268 269 270 271 272 273 274 274 275 275 276 276 275 276 277 280 282 283 284 285 286 286 285 283 283 282 281 280 280 280 279 279 278 277 276 276 275
251 251 250 249 247 246 247 248 249 252 253 254 256 257 257 258 260 259 257 257 257 255 252 250 249 249 250 252 255 257 258 259 259 259 260 261 261 261 262 262 261 261 260 260 261 262 262 263 265 266 266 268 269 269 271 272 272 273 274 274 275 276 275 276 277 279 281 282 283 285 285 286 286 285 286 285 284 282 281 281 281 279 278 278 277 276 276 276
252 253 251 249 248 247 247 248 249 251 253 255 256 257 258 260 261 259 258 257 257 256 255 253 250 249 249 250 252 254 255 256 256 257 258 260 260 261 261 261 261 260 260 260 260 261 262 263 264 265 266 267 267 268 269 270 271 272 273 274 275 275 276 277 279 280 281 282 283 284 284 285 285 285 286 286 285 284 283 282 281 279 278 277 277 276 276 277
251 253 252 250 250 249 248 248 249 250 253 255 256 257 258 260 259 257 257 258 258 258 258 256 254 252 250 249 250 251 253 254 255 256 258 259 259 259 260 260 260 260 260 261 261 261 262 263 264 264 265 266 266 267 268 269 270 271 272 273 274 274 276 278 279 280 280 281 282 283 283 283 284 284 285 284 283 283 282 282 281 280 279 278 277 276 277 277
250 252 253 251 251 251 250 249 250 251 253 254 256 257 258 259 258 259 259 259 260 259 258 257 256 254 252 250 248 249 251 252 254 255 256 257 258 258 258 259 259 259 260 260 261 262 262 262 263 264 265 265 266 266 267 268 269 270 271 272 273 274 276 278 278 279 279 279 280 279 279 279 281 283 283 282 283 283 283 282 282 282 282 280 278 277 277 277
250 252 253 252 251 252 253 252 252 253 254 255 256 257 259 260 261 262 262 261 261 261 259 257 256 255 254 252 250 250 250 251 252 254 255 256 257 256 257 258 258 259 259 260 261 262 263 264 264 265 266 266 266 267 269 270 271 272 273 274 276 277 278 278 279 280 279 279 278 278 277 277 278 279 280 280 282 282 282 282 282 283 285 284 281 279 279 279
249 252 252 252 252 253 254 255 255 255 254 255 256 258 260 262 264 264 264 263 262 262 261 260 258 257 256 256 254 253 252 251 252 253 255 256 256 255 255 257 257 258 259 259 261 262 263 264 265 266 266 267 268 270 271 272 273 275 276 277 278 279 280 280 280 281 280 280 279 278 277 276 277 278 279 280 280 280 281 282 282 284 286 285 283 281 282 284
249 251 252 252 253 253 254 254 254 254 255 256 258 260 261 263 265 266 266 266 264 263 262 261 261 260 259 258 258 256 255 254 253 254 255 256 256 255 254 255 256 257 259 260 261 263 264 265 265 266 267 269 270 272 273 274 275 277 278 279 279 280 280 280 280 280 281 280 280 279 277 276 277 277 278 279 279 279 280 281 281 283 284 284 283 284 286 289
249 251 251 251 252 253 254 254 254 255 257 259 260 261 261 262 264 266 267 267 266 265 263 262 261 261 260 260 260 260 258 256 254 254 254 255 256 256 254 254 255 257 260 261 263 264 265 266 266 266 268 269 270 272 273 275 276 277 278 279 279 279 279 279 280 281 281 281 280 279 278 277 277 277 278 278 278 278 279 279 280 281 282 283 284 287 290 293
249 250 251 250 251 252 253 254 255 256 257 259 260 261 261 260 261 262 264 266 267 266 265 264 262 262 261 261 261 260 260 259 257 255 254 254 254 255 254 254 255 258 260 262 263 263 264 265 266 266 267 269 270 272 274 275 276 277 278 278 279 279 280 281 281 281 280 280 280 280 279 279 278 278 277 277 277 277 277 278 279 280 281 283 287 291 294 296
248 250 251 251 251 252 253 254 255 256 257 258 260 260 260 260 259 259 261 263 264 265 266 265 263 262 262 262 261 261 260 260 258 257 255 254 254 255 256 256 257 258 260 261 262 263 264 266 266 267 268 269 271 273 274 275 275 276 276 277 279 280 281 280 279 278 278 279 280 280 279 279 278 277 276 277 276 277 277 278 278 280 283 287 291 295 297 299
248 249 250 251 252 253 254 255 256 257 258 258 258 259 260 260 260 260 260 261 262 264 264 264 264 264 264 264 263 262 261 260 259 258 256 255 255 256 257 257 258 259 260 261 263 264 265 266 267 267 268 269 271 272 273 273 274 274 275 277 278 279 280 279 278 277 278 279 280 280 280 279 278 277 277 277 278 279 280 281 283 286 289 293 296 298 299 299
247 248 250 251 253 253 254 255 256 258 259 259 259 260 260 261 261 262 262 263 264 265 265 265 264 264 264 264 264 263 263 262 261 259 258 256 255 255 256 257 258 259 260 261 262 263 264 265 266 267 268 269 270 270 271 272 273 274 276 277 277 279 280 279 278 278 280 281 280 281 283 282 281 281 281 282 284 285 286 288 290 293 295 297 298 299 299 299
246 247 249 251 252 253 254 255 255 256 258 259 260 261 262 263 263 263 264 265 266 267 268 268 268 267 266 266 266 265 264 263 262 261 260 259 258 257 258 259 260 260 261 261 262 263 264 265 266 268 269 270 270 271 271 272 273 275 276 276 277 279 280 279 279 280 282 283 282 284 286 287 287 288 288 289 291 291 292 293 295 296 298 298 299 298 298 299
245 246 248 250 251 252 253 254 255 255 256 257 259 260 260 262 263 264 264 265 267 268 269 269 270 270 270 270 270 270 268 267 266 265 264 263 262 261 261 261 261 261 261 263 264 265 266 267 268 271 272 273 274 275 276 276 277 277 277 278 279 280 280 281 283 284 286 286 287 287 288 289 291 293 293 294 294 294 294 295 297 298 299 299 298 298 299 300
246 246 247 249 250 252 252 253 254 255 255 256 257 258 258 259 260 262 263 264 265 266 267 268 269 270 270 271 271 271 270 270 270 270 270 270 269 268 267 266 266 266 266 267 268 270 272 273 275 276 277 278 279 279 280 281 281 280 280 280 281 282 284 286 287 288 288 288 289 290 290 291 293 295 295 294 294 295 296 298 299 299 299 299 299 300 301 301
246 247 247 248 249 250 251 252 252 253 254 255 256 257 258 259 260 261 263 264 265 266 266 266 267 267 268 268 268 269 270 271 272 272 272 271 271 271 272 272 273 274 274 275 276 277 278 279 280 281 282 281 282 282 283 283 283 283 283 283 284 286 287 289 289 289 289 290 291 292 292 293 296 296 295 294 296 297 299 299 299 299 299 300 302 302 303 303
247 247 248 248 248 249 249 250 252 253 254 255 256 257 258 259 261 262 263 263 264 265 265 266 266 267 267 267 267 269 270 271 270 269 269 269 270 271 272 273 275 276 277 278 279 280 282 283 284 284 285 284 285 285 285 284 285 284 284 286 289 290 289 289 289 290 291 293 294 293 293 296 297 296 295 296 298 299 299 299 299 300 301 302 303 303 303 303
248 248 248 249 248 248 248 249 250 252 254 256 257 258 258 258 259 260 261 262 263 264 265 267 267 267 268 269 270 271 272 271 270 270 269 269 270 271 272 273 274 275 277 278 279 280 282 283 284 285 285 286 287 287 286 287 287 286 288 291 292 291 290 291 292 294 295 294 293 293 295 297 297 296 296 298 298 298 298 299 300 301 302 302 303 303 303 302
247 248 249 249 249 249 248 248 249 251 254 256 258 259 259 259 258 258 259 260 261 263 264 265 265 266 267 269 270 271 271 271 272 272 272 272 272 273 273 274 275 276 277 278 279 280 281 282 283 284 284 285 286 287 287 287 287 289 294 296 294 293 295 296 297 297 295 293 293 295 297 297 296 296 297 297 296 297 298 300 301 301 301 302 302 302 301 301
Height
10781 10782 10783 10784 10785 10786 10787 10788 10788 10789 10789 10790 10790 10791 10792 10792 10793 10794 10794 10795 10795 10796 10796 10796 10797 10797 10797 10797 10797 10797 10798 10798 10798 10798 10798 10798 10798 10798 10799 10799 10798 10798 10798 10798 10798 10798 10798 10797 10797 10797 10796 10796 10796 10795 10795 10795 10796 10796 10796 10797 10797 10796 10795 10795 10795 10796 10796 10796 10796 10796 10796 10795 10794 10794 10795 10797 10798 10799 10801 10800 10797 10795 10793 10793 10793 10792 10792 10791
10777 10778 10779 10780 10781 10783 10783 10784 10785 10785 10786 10787 10787 10788 10789 10790 10790 10791 10791 10792 10792 10793 10793 10794 10794 10794 10795 10795 10795 10795 10795 10796 10796 10795 10795 10796 10796 10796 10796 10796 10796 10796 10795 10796 10796 10796 10796 10795 10795 10795 10794 10794 10794 10793 10792 10793 10794 10794 10794 10795 10795 10794 10794 10793 10793 10794 10794 10794 10794 10794 10794 10793 10792 10792 10793 10795 10796 10796 10799 10800 10798 10795 10792 10790 10790 10789 10789 10789
10773 10774 10775 10777 10778 10779 10780 10780 10781 10782 10783 10783 10784 10785 10786 10787 10788 10788 10789 10789 10789 10790 10790 10791 10791 10792 10792 10792 10792 10793 10793 10793 10793 10793 10793 10794 10794 10794 10794 10794 10794 10793 10793 10793 10793 10794 10794 10793 10793 10793 10792 10792 10792 10791 10790 10791 10791 10792 10792 10793 10793 10793 10792 10792 10792 10791 10792 10792 10792 10792 10792 10791 10790 10790 10791 10792 10793 10794 10796 10798 10798 10795 10792 10789 10787 10786 10785 10786
10770 10771 10772 10773 10774 10775 10776 10776 10777 10778 10779 10780 10781 10782 10783 10784 10785 10785 10786 10786 10786 10786 10787 10788 10788 10789 10789 10789 10789 10790 10791 10791 10790 10790 10791 10792 10792 10792 10792 10791 10791 10791 10791 10791 10791 10791 10791 10791 10790 10790 10790 10790 10789 10789 10788 10789 10789 10790 10790 10790 10791 10791 10790 10790 10790 10789 10789 10790 10790 10790 10790 10790 10788 10788 10789 10789 10790 10791 10793 10794 10795 10794 10793 10790 10787 10785 10783 10782
10766 10767 10768 10769 10770 10771 10772 10773 10774 10775 10776 10776 10778 10778 10779 10780 10782 10782 10782 10783 10783 10783 10783 10784 10785 10785 10786 10786 10786 10787 10788 10788 10787 10787 10788 10789 10789 10789 10789 10789 10789 10788 10788 10788 10788 10788 10788 10788 10788 10788 10788 10788 10787 10787 10786 10786 10787 10788 10788 10788 10788 10790 10789 10788 10788 10787 10787 10787 10788 10787 10788 10787 10786 10787 10787 10786 10787 10789 10790 10790 10791 10791 10791 10789 10788 10786 10784 10782
10762 10763 10764 10765 10766 10767 10768 10769 10770 10771 10772 10773 10774 10775 10776 10777 10778 10779 10779 10780 10779 10780 10780 10781 10781 10782 10782 10783 10783 10784 10785 10786 10784 10784 10786 10786 10786 10786 10787 10786 10786 10785 10785 10785 10785 10785 10785 10785 10785 10786 10786 10785 10785 10785 10784 10784 10784 10785 10786 10786 10786 10787 10788 10787 10786 10786 10785 10785 10785 10785 10785 10785 10784 10785 10785 10784 10785 10786 10787 10787 10787 10787 10786 10786 10785 10785 10784 10783
10757 10759 10760 10761 10762 10763 10764 10765 10767 10767 10768 10770 10771 10772 10773 10774 10775 10776 10776 10776 10776 10776 10777 10777 10778 10779 10779 10780 10780 10780 10782 10783 10781 10781 10783 10783 10783 10783 10783 10783 10783 10783 10782 10782 10782 10782 10782 10782 10782 10783 10783 10783 10783 10783 10782 10782 10782 10783 10784 10784 10784 10784 10785 10785 10785 10784 10782 10782 10782 10781 10782 10782 10780 10782 10783 10783 10784 10784 10784 10784 10784 10783 10782 10781 10781 10781 10781 10781
10753 10754 10756 10757 10758 10760 10761 10762 10763 10764 10765 10766 10767 10769 10770 10771 10772 10772 10773 10773 10773 10773 10773 10774 10775 10775 10776 10776 10777 10777 10779 10780 10778 10778 10780 10780 10780 10780 10780 10780 10780 10780 10780 10779 10779 10779 10779 10779 10779 10780 10780 10780 10780 10780 10780 10780 10779 10780 10781 10781 10782 10781 10782 10783 10783 10782 10781 10780 10780 10778 10779 10779 10776 10778 10781 10781 10782 10782 10782 10781 10780 10780 10779 10778 10777 10777 10777 10778
10748 10750 10751 10753 10754 10755 10757 10758 10759 10760 10761 10763 10764 10765 10766 10767 10768 10769 10770 10770 10770 10770 10770 10771 10772 10772 10772 10772 10773 10773 10775 10777 10775 10775 10776 10777 10777 10777 10777 10777 10777 10777 10777 10777 10777 10776 10777 10777 10777 10777 10777 10777 10777 10778 10778 10778 10777 10777 10777 10778 10779 10779 10779 10780 10780 10780 10779 10779 10778 10776 10775 10775 10773 10774 10777 10778 10779 10779 10779 10779 10778 10777 10776 10775 10774 10774 10773 10774
10744 10745 10747 10748 10750 10751 10753 10754 10755 10756 10758 10759 10760 10761 10762 10764 10764 10765 10766 10766 10766 10766 10766 10767 10768 10769 10769 10769 10768 10768 10772 10773 10771 10772 10772 10773 10774 10774 10774 10774 10774 10774 10774 10774 10774 10774 10774 10774 10774 10774 10774 10774 10774 10775 10775 10775 10775 10775 10775 10774 10776 10776 10776 10778 10777 10777 10777 10777 10776 10774 10772 10772 10770 10771 10774 10775 10775 10777 10777 10776 10775 10774 10773 10773 10772 10771 10771 10771
10739 10740 10742 10744 10745 10747 10748 10750 10751 10752 10753 10755 10756 10757 10758 10759 10760 10761 10762 10762 10762 10762 10763 10763 10764 10765 10765 10765 10764 10764 10768 10768 10768 10769 10769 10769 10770 10770 10770 10770 10770 10770 10770 10770 10771 10771 10771 10771 10771 10771 10771 10770 10771 10772 10772 10773 10772 10772 10772 10771 10772 10773 10773 10774 10774 10773 10774 10775 10774 10772 10769 10767 10767 10768 10771 10773 10773 10773 10774 10773 10772 10771 10770 10770 10769 10769 10768 10768
10734 10736 10737 10739 10740 10742 10744 10745 10746 10748 10749 10750 10751 10752 10753 10755 10756 10756 10757 10758 10758 10758 10759 10760 10760 10761 10762 10761 10759 10761 10763 10763 10764 10765 10765 10766 10766 10766 10766 10767 10767 10767 10767 10767 10767 10767 10768 10768 10767 10768 10768 10767 10767 10769 10769 10769 10769 10769 10769 10769 10769 10769 10768 10769 10770 10769 10771 10772 10771 10769 10765 10761 10762 10764 10766 10769 10770 10770 10769 10769 10768 10768 10767 10767 10766 10766 10766 10765
10729 10730 10732 10734 10735 10737 10739 10740 10742 10743 10744 10745 10746 10747 10749 10750 10751 10752 10753 10753 10754 10754 10755 10756 10756 10757 10758 10757 10755 10757 10759 10759 10760 10761 10761 10762 10762 10762 10763 10763 10763 10763 10763 10763 10764 10764 10764 10764 10765 10765 10764 10764 10764 10765 10766 10765 10766 10766 10767 10766 10765 10765 10763 10764 10765 10765 10766 10768 10767 10766 10762 10756 10754 10759 10762 10764 10766 10766 10765 10763 10763 10763 10763 10763 10763 10762 10762 10762
10723 10725 10727 10729 10730 10732 10734 10736 10737 10738 10740 10741 10742 10743 10744 10745 10746 10747 10748 10749 10749 10750 10751 10752 10752 10753 10754 10752 10751 10754 10755 10755 10757 10757 10758 10758 10758 10759 10759 10759 10759 10759 10759 10759 10760 10760 10761 10761 10761 10761 10761 10761 10760 10760 10762 10762 10762 10763 10764 10763 10761 10760 10758 10758 10761 10762 10762 10764 10763 10762 10760 10752 10747 10752 10758 10759 10761 10760 10759 10759 10759 10759 10759 10758 10758 10758 10758 10758
10718 10720 10721 10723 10725 10727 10728 10730 10732 10733 10735 10736 10737 10738 10739 10740 10741 10742 10743 10744 10745 10746 10747 10748 10749 10750 10750 10748 10748 10749 10750 10752 10753 10753 10754 10754 10754 10755 10755 10755 10755 10755 10755 10755 10755 10756 10756 10757 10757 10757 10756 10756 10756 10756 10757 10758 10758 10758 10760 10759 10757 10756 10754 10753 10756 10757 10759 10760 10760 10759 10757 10750 10742 10746 10753 10755 10755 10754 10754 10754 10754 10754 10754 10753 10753 10753 10753 10753
10712 10714 10716 10718 10719 10721 10723 10725 10726 10728 10729 10730 10731 10733 10733 10735 10735 10736 10738 10739 10740 10741 10742 10744 10744 10745 10747 10745 10744 10745 10745 10748 10749 10749 10749 10750 10751 10750 10750 10751 10751 10751 10752 10751 10752 10752 10752 10753 10753 10752 10752 10751 10750 10751 10754 10755 10754 10754 10756 10755 10753 10753 10751 10748 10749 10752 10755 10757 10757 10755 10753 10748 10740 10741 10748 10751 10750 10749 10749 10749 10749 10749 10748 10748 10749 10749 10748 10748
10707 10708 10710 10712 10714 10716 10718 10719 10721 10722 10724 10725 10726 10727 10728 10729 10730 10731 10733 10734 10735 10736 10738 10740 10740 10742 10743 10741 10740 10740 10741 10744 10744 10744 10745 10745 10746 10746 10746 10747 10747 10747 10747 10747 10748 10748 10748 10749 10749 10748 10747 10745 10745 10748 10751 10751 10749 10749 10751 10751 10750 10749 10748 10744 10742 10747 10751 10752 10752 10751 10749 10745 10739 10739 10744 10746 10744 10744 10744 10744 10744 10743 10743 10743 10743 10743 10743 10743
10701 10703 10705 10707 10709 10711 10712 10714 10715 10716 10718 10719 10720 10721 10723 10724 10725 10727 10728 10729 10731 10731 10733 10735 10735 10738 10739 10736 10736 10736 10737 10739 10739 10740 10741 10741 10741 10741 10742 10742 10743 10743 10743 10744 10744 10744 10745 10745 10745 10744 10741 10739 10742 10746 10748 10746 10744 10745 10746 10747 10747 10745 10744 10740 10739 10743 10747 10747 10747 10746 10745 10741 10737 10737 10740 10741 10740 10740 10740 10739 10739 10739 10738 10738 10737 10737 10737 10737
10695 10697 10699 10701 10703 10705 10706 10708 10709 10711 10712 10713 10714 10716 10717 10718 10720 10722 10723 10724 10726 10726 10728 10730 10731 10733 10733 10732 10732 10732 10732 10734 10735 10735 10736 10736 10736 10736 10737 10738 10738 10738 10739 10739 10740 10741 10741 10742 10742 10739 10734 10736 10741 10743 10743 10741 10741 10741 10741 10742 10742 10740 10739 10736 10736 10740 10742 10742 10740 10740 10741 10737 10734 10734 10735 10735 10735 10736 10735 10735 10734 10734 10733 10733 10732 10732 10731 10730
10690 10692 10693 10695 10697 10699 10700 10702 10703 10704 10706 10707 10708 10710 10711 10713 10715 10717 10718 10719 10720 10721 10724 10726 10727 10728 10728 10727 10728 10729 10729 10730 10731 10731 10730 10731 10731 10732 10733 10733 10733 10733 10734 10734 10736 10737 10737 10739 10738 10732 10730 10735 10738 10737 10737 10737 10737 10737 10737 10737 10737 10736 10734 10731 10734 10737 10737 10738 10735 10734 10735 10733 10731 10732 10730 10729 10730 10731 10731 10730 10730 10729 10728 10727 10727 10727 10726 10725
10684 10686 10688 10690 10692 10693 10695 10696 10697 10698 10699 10701 10702 10704 10706 10707 10709 10711 10712 10714 10715 10717 10719 10721 10722 10723 10722 10723 10724 10725 10726 10726 10726 10726 10725 10726 10726 10727 10727 10727 10728 10728 10729 10730 10732 10732 10732 10736 10731 10725 10728 10732 10732 10732 10732 10733 10732 10732 10732 10732 10732 10731 10729 10728 10731 10732 10732 10734 10732 10729 10729 10727 10728 10728 10725 10724 10725 10726 10727 10726 10726 10724 10723 10723 10722 10721 10721 10720
10677 10680 10682 10684 10686 10688 10689 10690 10691 10692 10693 10695 10696 10698 10699 10700 10703 10705 10706 10709 10710 10711 10714 10716 10718 10718 10716 10719 10720 10720 10722 10723 10721 10720 10720 10721 10721 10721 10722 10723 10723 10723 10724 10725 10726 10726 10730 10731 10725 10722 10726 10727 10727 10727 10727 10727 10727 10727 10727 10728 10727 10725 10725 10726 10726 10727 10728 10729 10728 10726 10725 10723 10723 10722 10719 10719 10719 10720 10721 10721 10721 10720 10718 10718 10717 10716 10715 10715
10671 10674 10676 10678 10680 10682 10683 10684 10685 10686 10687 10690 10690 10691 10693 10695 10697 10698 10700 10704 10705 10706 10709 10710 10712 10713 10711 10713 10715 10716 10718 10717 10715 10715 10714 10715 10715 10715 10717 10717 10716 10718 10719 10719 10719 10723 10726 10725 10719 10718 10721 10722 10723 10723 10722 10722 10722 10722 10723 10723 10722 10720 10722 10723 10721 10722 10724 10724 10724 10723 10722 10720 10718 10717 10714 10712 10713 10714 10714 10715 10715 10714 10713 10712 10711 10711 10710 10709
10665 10667 10669 10672 10674 10676 10677 10678 10679 10680 10682 10683 10684 10685 10687 10688 10690 10691 10693 10698 10702 10701 10701 10704 10707 10708 10707 10708 10710 10711 10712 10710 10710 10710 10707 10708 10709 10709 10712 10711 10711 10714 10713 10712 10714 10719 10721 10717 10714 10714 10715 10717 10718 10717 10716 10716 10718 10719 10718 10717 10717 10716 10718 10718 10717 10718 10719 10719 10719 10718 10719 10717 10714 10712 10709 10707 10708 10709 10708 10708 10708 10707 10707 10706 10705 10705 10704 10703
10659 10661 10663 10665 10667 10670 10671 10672 10673 10674 10676 10676 10677 10679 10681 10682 10683 10684 10686 10691 10699 10698 10693 10697 10702 10703 10703 10703 10704 10703 10704 10707 10705 10703 10701 10702 10703 10704 10705 10706 10708 10709 10707 10707 10711 10715 10714 10709 10709 10710 10710 10712 10712 10711 10709 10710 10714 10714 10712 10711 10712 10713 10713 10713 10713 10714 10715 10715 10714 10713 10714 10714 10711 10707 10704 10703 10704 10704 10702 10701 10701 10700 10700 10699 10699 10698 10697 10696
10652 10654 10657 10658 10661 10664 10665 10666 10666 10667 10670 10669 10671 10673 10674 10675 10675 10677 10678 10682 10694 10695 10688 10691 10696 10699 10699 10696 10696 10695 10698 10703 10698 10694 10695 10696 10697 10698 10700 10702 10703 10702 10701 10702 10706 10710 10707 10702 10704 10706 10705 10705 10706 10704 10704 10706 10710 10708 10704 10705 10708 10708 10707 10708 10709 10709 10710 10710 10710 10708 10708 10709 10709 10703 10699 10699 10699 10698 10696 10695 10694 10693 10693 10692 10692 10691 10690 10689
10645 10647 10650 10653 10655 10658 10659 10660 10660 10663 10664 10662 10665 10666 10666 10668 10667 10669 10669 10673 10689 10694 10687 10687 10689 10693 10693 10689 10689 10688 10692 10695 10690 10688 10690 10690 10692 10694 10696 10697 10696 10696 10696 10698 10701 10702 10698 10697 10699 10700 10699 10699 10699 10698 10700 10702 10702 10700 10698 10700 10702 10702 10702 10703 10703 10704 10705 10705 10705 10703 10699 10702 10706 10701 10696 10696 10694 10691 10690 10689 10687 10686 10686 10685 10684 10683 10682 10682
10638 10640 10643 10647 10649 10651 10653 10655 10656 10657 10656 10656 10658 10657 10659 10659 10659 10661 10659 10664 10685 10692 10686 10685 10682 10683 10685 10682 10682 10681 10683 10686 10683 10683 10684 10684 10688 10690 10690 10691 10690 10691 10692 10692 10694 10693 10692 10692 10692 10692 10693 10693 10692 10693 10695 10695 10695 10694 10693 10694 10695 10696 10697 10697 10697 10698 10698 10699 10700 10696 10690 10694 10701 10697 10692 10690 10687 10685 10684 10682 10680 10679 10679 10678 10677 10675 10675 10674
10632 10634 10637 10639 10642 10645 10647 10649 10649 10648 10649 10650 10649 10649 10651 10651 10651 10653 10649 10659 10682 10688 10683 10681 10675 10674 10675 10675 10675 10674 10674 10676 10677 10679 10680 10681 10683 10684 10684 10685 10686 10686 10686 10686 10687 10686 10686 10686 10685 10686 10687 10686 10686 10687 10688 10688 10688 10687 10687 10688 10688 10690 10690 10690 10691 10690 10691 10693 10693 10687 10683 10687 10694 10692 10687 10683 10681 10678 10676 10674 10673 10672 10671 10671 10669 10668 10667 10665
10626 10628 10630 10632 10637 10639 10640 10642 10641 10639 10642 10642 10641 10643 10643 10644 10644 10641 10642 10660 10677 10679 10677 10674 10670 10669 10667 10666 10666 10665 10666 10669 10672 10675 10676 10677 10677 10677 10678 10679 10680 10680 10680 10681 10679 10678 10679 10679 10680 10680 10679 10679 10679 10680 10680 10681 10681 10680 10680 10681 10681 10683 10683 10683 10683 10682 10683 10686 10685 10680 10678 10680 10685 10686 10680 10676 10674 10671 10669 10667 10666 10665 10664 10663 10661 10660 10658 10657
10619 10621 10621 10626 10630 10630 10633 10636 10632 10632 10634 10633 10634 10635 10634 10636 10633 10630 10644 10662 10664 10666 10671 10669 10665 10663 10659 10658 10657 10658 10661 10663 10666 10669 10670 10671 10672 10672 10672 10672 10672 10673 10673 10674 10670 10670 10673 10674 10673 10673 10672 10672 10672 10672 10673 10674 10674 10674 10674 10674 10674 10675 10675 10675 10676 10674 10675 10678 10676 10674 10673 10674 10677 10677 10672 10669 10666 10664 10662 10660 10659 10657 10656 10654 10653 10652 10650 10648
10611 10611 10613 10618 10621 10622 10626 10627 10621 10622 10626 10626 10625 10626 10625 10623 10621 10630 10649 10654 10650 10657 10664 10661 10659 10657 10652 10653 10653 10654 10656 10657 10659 10662 10663 10665 10665 10665 10665 10665 10665 10665 10666 10665 10662 10664 10667 10666 10666 10666 10665 10665 10665 10666 10666 10666 10667 10667 10667 10667 10666 10667 10667 10668 10667 10665 10667 10670 10670 10669 10668 10669 10671 10667 10663 10660 10657 10656 10656 10653 10651 10649 10647 10646 10645 10643 10641 10639
10602 10601 10604 10609 10612 10614 10617 10616 10613 10615 10619 10618 10614 10615 10613 10609 10618 10637 10644 10640 10640 10649 10653 10650 10651 10650 10648 10651 10650 10650 10651 10652 10654 10654 10655 10657 10657 10657 10657 10658 10658 10657 10659 10658 10656 10658 10659 10658 10659 10658 10658 10658 10659 10659 10658 10659 10660 10660 10660 10659 10659 10658 10657 10659 10659 10658 10661 10663 10662 10663 10662 10664 10664 10659 10654 10651 10648 10648 10647 10644 10643 10641 10639 10638 10635 10633 10631 10629
10591 10592 10597 10600 10602 10607 10609 10609 10609 10608 10608 10607 10604 10603 10600 10603 10621 10635 10632 10630 10634 10637 10640 10642 10642 10642 10644 10647 10647 10646 10646 10647 10647 10647 10648 10649 10650 10650 10650 10650 10650 10651 10651 10650 10649 10650 10651 10652 10651 10650 10651 10651 10651 10651 10651 10652 10653 10653 10653 10651 10652 10649 10645 10649 10652 10652 10654 10655 10656 10657 10655 10656 10655 10651 10648 10644 10640 10638 10636 10634 10633 10632 10630 10627 10625 10623 10620 10619
10581 10584 10587 10589 10593 10601 10602 10601 10601 10598 10596 10598 10595 10589 10591 10604 10619 10623 10621 10623 10625 10627 10631 10632 10633 10635 10637 10639 10641 10640 10639 10640 10640 10639 10641 10643 10643 10643 10642 10642 10643 10642 10642 10641 10641 10642 10644 10646 10644 10643 10644 10644 10644 10644 10643 10645 10645 10646 10646 10644 10644 10639 10635 10639 10644 10645 10644 10646 10650 10650 10647 10647 10646 10643 10641 10636 10632 10629 10626 10624 10622 10621 10619 10616 10613 10612 10610 10608
10572 10574 10576 10581 10588 10592 10591 10590 10591 10589 10588 10587 10582 10578 10587 10602 10609 10610 10613 10615 10616 10621 10622 10621 10625 10627 10628 10631 10632 10631 10631 10632 10633 10633 10635 10636 10636 10637 10636 10634 10633 10633 10633 10632 10632 10634 10637 10638 10637 10635 10636 10636 10636 10637 10636 10636 10637 10638 10638 10636 10633 10629 10628 10631 10633 10635 10634 10635 10642 10642 10639 10639 10637 10635 10633 10626 10623 10620 10616 10614 10611 10609 10607 10604 10602 10600 10599 10598
10562 10564 10568 10575 10580 10579 10579 10581 10581 10579 10579 10575 10569 10573 10584 10594 10597 10601 10607 10608 10610 10613 10612 10612 10616 10616 10618 10621 10622 10623 10623 10624 10626 10627 10628 10627 10629 10631 10628 10624 10624 10624 10623 10621 10622 10626 10628 10629 10629 10628 10628 10628 10628 10628 10628 10629 10628 10629 10629 10627 10624 10622 10623 10621 10621 10624 10623 10624 10631 10633 10632 10632 10629 10627 10623 10615 10612 10609 10605 10603 10599 10596 10595 10593 10591 10590 10589 10587
10554 10555 10559 10567 10571 10569 10570 10572 10572 10570 10569 10562 10559 10569 10579 10584 10589 10595 10599 10600 10601 10602 10603 10605 10606 10606 10608 10611 10614 10615 10613 10615 10619 10618 10619 10619 10621 10624 10620 10616 10616 10614 10612 10612 10614 10617 10618 10619 10621 10620 10619 10618 10619 10620 10622 10621 10619 10618 10619 10619 10617 10615 10614 10612 10609 10612 10612 10611 10618 10624 10625 10625 10623 10618 10612 10606 10602 10596 10592 10590 10586 10584 10582 10581 10580 10578 10576 10575
10544 10544 10550 10559 10562 10561 10562 10563 10562 10560 10554 10549 10554 10566 10574 10578 10582 10585 10586 10589 10590 10592 10595 10598 10598 10598 10600 10602 10605 10605 10604 10607 10610 10609 10610 10611 10613 10616 10613 10608 10607 10605 10603 10603 10605 10608 10609 10609 10612 10612 10609 10609 10612 10613 10613 10612 10610 10609 10611 10611 10610 10605 10602 10601 10599 10599 10599 10598 10603 10611 10617 10620 10616 10609 10602 10597 10592 10584 10579 10577 10574 10572 10571 10569 10567 10565 10563 10561
10535 10533 10541 10551 10552 10552 10554 10552 10549 10545 10541 10544 10553 10562 10567 10571 10574 10574 10574 10576 10578 10581 10586 10589 10588 10589 10592 10594 10595 10595 10596 10598 10600 10600 10602 10603 10604 10607 10605 10601 10599 10596 10594 10594 10597 10599 10598 10600 10602 10602 10602 10603 10605 10605 10603 10602 10601 10601 10601 10601 10600 10595 10590 10588 10587 10589 10588 10586 10589 10593 10603 10612 10608 10598 10592 10587 10581 10573 10568 10566 10563 10561 10560 10557 10554 10552 10550 10548
10526 10523 10533 10543 10542 10542 10543 10538 10537 10536 10535 10541 10549 10554 10559 10565 10567 10566 10565 10564 10565 10570 10575 10578 10579 10580 10582 10584 10585 10586 10586 10587 10591 10592 10593 10595 10596 10596 10595 10593 10590 10588 10586 10586 10589 10589 10587 10589 10592 10594 10596 10597 10597 10596 10595 10594 10593 10592 10591 10591 10589 10583 10578 10575 10576 10582 10578 10574 10576 10575 10583 10600 10597 10586 10581 10575 10570 10565 10559 10556 10553 10549 10547 10543 10541 10540 10538 10535
10515 10515 10525 10532 10531 10532 10531 10526 10526 10528 10529 10536 10542 10544 10550 10556 10559 10558 10558 10556 10555 10558 10562 10566 10569 10570 10571 10573 10574 10575 10574 10576 10580 10581 10583 10586 10586 10585 10585 10584 10582 10580 10577 10576 10578 10577 10575 10577 10582 10586 10588 10588 10588 10589 10589 10586 10585 10583 10581 10580 10576 10571 10571 10566 10565 10571 10566 10563 10567 10560 10563 10583 10585 10573 10567 10561 10558 10556 10550 10546 10541 10536 10533 10530 10529 10528 10524 10521
10506 10508 10514 10517 10518 10521 10519 10514 10516 10520 10523 10530 10533 10533 10538 10544 10549 10550 10550 10550 10548 10548 10550 10553 10557 10559 10560 10562 10563 10564 10565 10565 10567 10571 10574 10575 10576 10576 10576 10574 10573 10570 10567 10566 10567 10565 10563 10566 10571 10575 10578 10580 10581 10581 10581 10578 10575 10571 10569 10570 10567 10565 10563 10557 10554 10556 10553 10556 10559 10545 10546 10567 10569 10559 10554 10547 10543 10542 10538 10533 10528 10523 10520 10518 10516 10514 10511 10508
10498 10499 10502 10504 10506 10508 10506 10505 10510 10513 10516 10520 10522 10523 10527 10532 10535 10538 10540 10541 10540 10539 10540 10542 10545 10548 10550 10551 10552 10553 10554 10554 10556 10559 10561 10563 10565 10566 10564 10563 10561 10559 10558 10557 10555 10554 10553 10555 10559 10563 10567 10572 10574 10573 10571 10568 10563 10559 10561 10562 10559 10556 10552 10547 10544 10541 10541 10550 10547 10531 10534 10549 10548 10541 10539 10532 10527 10526 10523 10518 10515 10510 10506 10505 10504 10501 10498 10494
10488 10489 10491 10493 10494 10496 10497 10500 10504 10506 10506 10509 10511 10514 10517 10519 10522 10526 10529 10530 10529 10529 10529 10530 10534 10537 10538 10540 10541 10542 10543 10544 10545 10546 10548 10551 10553 10553 10552 10551 10550 10549 10547 10546 10545 10543 10542 10543 10546 10551 10556 10561 10564 10562 10559 10556 10551 10550 10553 10553 10548 10546 10543 10538 10534 10529 10531 10535 10530 10522 10525 10527 10525 10525 10521 10515 10512 10509 10505 10501 10499 10496 10493 10492 10491 10488 10485 10481
10478 10479 10482 10484 10483 10485 10489 10492 10494 10497 10499 10500 10501 10504 10507 10508 10510 10514 10516 10517 10517 10518 10517 10519 10521 10523 10525 10527 10528 10529 10530 10531 10532 10533 10536 10538 10540 10541 10540 10538 10537 10536 10536 10535 10533 10532 10532 10534 10536 10538 10542 10547 10548 10545 10544 10544 10542 10541 10542 10540 10536 10535 10532 10527 10524 10523 10520 10513 10511 10517 10513 10502 10506 10511 10502 10496 10496 10492 10488 10485 10483 10483 10481 10479 10477 10474 10471 10467
10467 10470 10474 10474 10473 10475 10479 10482 10484 10487 10491 10491 10490 10494 10498 10499 10499 10501 10503 10505 10507 10508 10507 10507 10508 10510 10512 10513 10514 10514 10515 10516 10517 10521 10525 10525 10526 10528 10527 10524 10522 10521 10522 10523 10521 10520 10520 10522 10525 10525 10527 10531 10531 10527 10527 10528 10529 10529 10527 10525 10525 10523 10519 10517 10515 10513 10506 10495 10495 10504 10496 10485 10495 10498 10484 10478 10477 10473 10471 10471 10470 10471 10467 10462 10459 10457 10456 10453
10457 10462 10464 10464 10463 10465 10469 10473 10474 10475 10478 10479 10479 10482 10486 10489 10490 10492 10494 10495 10496 10497 10496 10496 10499 10500 10500 10501 10500 10499 10501 10503 10506 10511 10513 10512 10510 10510 10510 10509 10507 10506 10509 10509 10508 10506 10504 10507 10511 10510 10510 10516 10514 10510 10511 10511 10511 10512 10512 10512 10514 10511 10507 10507 10505 10498 10490 10481 10481 10485 10478 10474 10484 10482 10467 10459 10457 10455 10456 10456 10456 10455 10449 10443 10439 10437 10436 10433
10447 10451 10453 10453 10454 10456 10458 10461 10462 10463 10465 10467 10467 10470 10475 10478 10481 10484 10485 10484 10485 10485 10485 10486 10490 10490 10489 10488 10486 10486 10491 10496 10499 10501 10499 10496 10495 10495 10495 10496 10496 10495 10495 10494 10493 10491 10487 10490 10495 10493 10492 10498 10498 10495 10496 10494 10492 10493 10495 10498 10503 10502 10498 10496 10490 10483 10474 10468 10469 10467 10458 10461 10471 10464 10447 10440 10438 10438 10440 10440 10438 10436 10431 10427 10422 10417 10413 10408
10436 10438 10441 10442 10444 10446 10447 10449 10450 10452 10454 10455 10458 10463 10466 10469 10472 10473 10472 10471 10471 10471 10471 10475 10478 10478 10474 10472 10472 10478 10485 10487 10486 10486 10484 10482 10483 10484 10485 10486 10486 10484 10484 10483 10481 10479 10475 10475 10478 10475 10471 10476 10482 10481 10476 10475 10475 10474 10478 10488 10493 10489 10484 10480 10474 10469 10462 10455 10453 10446 10439 10448 10456 10443 10428 10427 10426 10422 10421 10421 10419 10416 10413 10410 10406 10399 10394 10388
10423 10425 10428 10430 10433 10434 10436 10439 10441 10441 10442 10444 10449 10455 10457 10459 10462 10460 10457 10458 10459 10459 10460 10463 10464 10462 10459 10458 10462 10470 10473 10468 10467 10469 10469 10470 10474 10475 10474 10475 10475 10473 10473 10472 10470 10469 10467 10464 10465 10461 10453 10455 10464 10461 10454 10456 10452 10450 10466 10481 10478 10468 10465 10463 10459 10455 10449 10440 10433 10427 10427 10434 10435 10422 10414 10414 10411 10406 10404 10403 10400 10397 10393 10389 10387 10383 10378 10374
10410 10411 10414 10417 10418 10420 10424 10429 10430 10431 10435 10438 10440 10441 10442 10445 10447 10446 10446 10449 10450 10450 10450 10452 10451 10449 10448 10451 10455 10458 10454 10449 10449 10453 10453 10455 10460 10461 10461 10462 10462 10461 10460 10460 10458 10458 10457 10454 10453 10450 10441 10441 10448 10445 10439 10435 10428 10435 10458 10465 10451 10444 10447 10445 10441 10438 10432 10421 10413 10412 10414 10415 10410 10404 10401 10399 10395 10391 10390 10387 10383 10379 10375 10370 10368 10366 10361 10358